Weather in Abuy

Kazakhstan     41°20′54″N   68°56′42″E
temp.,
°C
wind,
m/s
gust,
m/s
humid.,
%
clouds,
%
prec.,
mm/h
press.,
hPa
HPBL,
m
11 may, tue
tue1100:00+18nnw365028 0.0 1012144
03:00+17nnw226211 0.0 101216
06:00+16n226230 0.0 101347
09:00+20ese11551 0.0 1015378
12:00+25n45310 0.0 10151650
15:00+28nnw55200 0.0 10152113
18:00+27n56210 0.0 10151950
21:00+21nne35350 0.0 1015121
12 may, wed
wed1200:00+19nne34430 0.0 101556
03:00+17ne23440 0.0 101445
06:00+16ne22450 0.0 101428
09:00+21n33370 0.0 1014310
12:00+26nw33280 0.0 10141869
15:00+27nnw55260 0.0 10122433
18:00+27n66280 0.0 10112546
21:00+21n712420 0.0 1011464
13 may, thu
thu1300:00+18n46480 0.0 1010138
03:00+16se24570 0.0 101070
06:00+14sse47490 0.0 1011156
09:00+18sse35380 0.0 1013453
12:00+24s22300 0.0 1012874
15:00+27nnw33270 0.0 10111700
18:00+27nnw54290 0.0 10101830
21:00+20n59370 0.0 1011194
14 may, fri
fri1400:00+17nne22420 0.0 101030
03:00+17sse36470 0.0 101087
06:00+15se35410 0.0 101283
09:00+19s34350 0.0 1013374
12:00+25sw10260 0.0 1012812
15:00+29nnw33250 0.0 10111515
18:00+29nnw432539 0.0 10091948
21:00+22n354328 0.0 101081
15 may, sat
sat1500:00+20ese11480 0.0 100917
03:00+19se23520 0.0 100837
06:00+18sse22540 0.0 100928
09:00+21s33410 0.0 1010330
12:00+27wsw11290 0.0 1009866
15:00+30nw32230 0.0 10081701
18:00+31nw33210 0.0 10062328
21:00+24n23440 0.0 100759